User: anonymous   Login
Location: 02324
(41.9834°N, 70.9022°W)
Time: 14:38:51
(UTC-04:00)
Language:

H-2A R/B - Orbit

View from above orbital plane
View from above orbital plane
View from above satellite
View from above satellite

Ground track
Ground track

The orbit data is extracted from the following two-line orbital elements,

1 36105U 09066B   17139.08161490 0.00001100  00000-0  61086-4 0    06
2 36105  97.3417 172.1709 0032171  81.8841 278.1157 15.13321652    09
Epoch (UTC): 19 May 2017 01:57:31
Eccentricity: 0.0032171
inclination: 97.3417°
perigee height: 504 km
apogee height: 548 km
right ascension of ascending node: 172.1709°
argument of perigee: 81.8841°
revolutions per day: 15.13321652
mean anomaly at epoch: 278.1157°
orbit number at epoch: 0

The dashed part of the orbit path shows where the satellite is in the earth's shadow,  

DLR